Total_Precipitation_Accumulation
1.77 1.76 1.38 0.87 0.68 0.61 0.63 0.61 0.52 0.53 0.50 0.59 0.58 0.56 0.52 0.52 0.60 0.65 0.64 0.69 0.83 1.02 1.24 1.41 1.75 2.00 2.23 2.53 2.86 3.12 3.25 3.39 3.56 3.75 3.90 3.84 3.80 3.63 3.38 3.14 3.00 2.89 2.56 2.47
1.72 1.33 0.76 0.55 0.62 0.67 0.73 0.74 0.56 0.52 0.53 0.66 0.68 0.63 0.56 0.59 0.67 0.66 0.65 0.66 0.73 0.89 1.11 1.33 1.60 1.81 2.05 2.31 2.52 2.94 3.18 3.22 3.23 3.27 3.51 3.73 3.96 3.98 3.85 3.61 3.30 3.15 2.91 2.64
1.33 0.87 0.64 0.69 0.79 0.86 0.77 0.69 0.59 0.62 0.65 0.73 0.78 0.81 0.68 0.69 0.62 0.63 0.68 0.71 0.75 0.80 0.96 1.17 1.47 1.68 1.88 2.13 2.30 2.54 2.86 3.08 3.16 3.26 3.60 3.85 4.04 3.96 3.81 3.64 3.38 3.19 3.07 2.82
1.15 0.72 0.76 0.86 0.85 0.84 0.81 0.50 0.54 0.69 0.92 1.03 0.90 1.09 0.86 0.74 0.60 0.61 0.67 0.70 0.76 0.81 0.94 1.08 1.25 1.51 1.75 1.90 2.10 2.31 2.59 2.89 3.13 3.31 3.45 3.49 3.49 3.46 3.34 3.34 3.39 3.28 3.05 2.92
1.20 0.81 0.87 0.97 0.75 0.75 0.72 0.47 0.55 0.77 1.01 1.09 0.79 0.91 0.84 0.60 0.60 0.61 0.63 0.65 0.69 0.79 0.87 0.94 1.05 1.29 1.52 1.71 1.92 2.17 2.38 2.62 2.94 3.22 3.22 3.28 3.22 3.13 3.18 3.17 3.18 3.21 3.07 2.93
0.91 0.79 0.97 0.93 0.65 0.71 0.75 0.80 0.91 1.03 1.48 1.56 0.71 0.73 0.82 0.70 0.74 0.68 0.63 0.63 0.66 0.73 0.82 0.89 0.96 1.14 1.36 1.57 1.71 1.97 2.26 2.42 2.65 3.01 3.04 2.93 2.82 2.74 2.88 2.99 2.98 3.05 2.97 2.81
1.31 1.07 0.93 0.89 0.94 0.98 1.09 1.56 2.08 2.11 2.06 1.28 0.49 0.55 0.79 0.67 0.67 0.74 0.67 0.60 0.60 0.64 0.73 0.78 0.80 0.96 1.23 1.44 1.59 1.75 2.05 2.24 2.39 2.66 2.84 2.84 2.72 2.60 2.56 2.68 2.81 2.91 2.91 2.62
1.42 1.32 0.93 0.97 1.12 1.25 1.15 1.40 1.67 1.50 1.05 0.62 0.44 0.59 0.69 0.54 0.52 0.55 0.55 0.51 0.52 0.58 0.65 0.71 0.76 0.86 1.05 1.28 1.48 1.59 1.77 2.02 2.17 2.32 2.52 2.73 2.66 2.54 2.42 2.38 2.54 2.70 2.77 2.63
1.11 1.07 0.68 0.71 0.75 0.87 1.12 1.16 1.01 1.32 0.91 0.66 0.61 0.62 0.53 0.37 0.38 0.42 0.45 0.44 0.49 0.56 0.61 0.71 0.75 0.83 0.92 1.09 1.31 1.46 1.56 1.78 1.94 2.07 2.28 2.51 2.47 2.30 2.19 2.12 2.17 2.33 2.47 2.50
1.05 1.12 0.70 0.68 0.90 0.93 0.97 0.98 1.21 1.82 1.50 0.92 0.60 0.53 0.60 0.47 0.45 0.44 0.46 0.49 0.53 0.55 0.56 0.62 0.73 0.81 0.88 0.99 1.14 1.32 1.48 1.67 1.80 1.90 2.06 2.21 2.24 2.14 2.00 1.91 1.90 1.97 2.05 2.13
0.93 1.24 0.93 0.90 1.14 0.96 0.95 1.14 1.36 1.45 1.24 1.12 0.75 0.65 0.61 0.54 0.51 0.49 0.50 0.53 0.55 0.56 0.58 0.61 0.68 0.79 0.88 0.99 1.11 1.22 1.38 1.54 1.71 1.81 1.84 1.89 1.96 2.00 1.90 1.83 1.72 1.69 1.78 1.87
0.83 1.28 1.05 0.74 0.66 0.58 0.77 0.93 1.15 1.58 1.20 0.90 0.80 0.69 0.47 0.43 0.46 0.48 0.49 0.53 0.52 0.50 0.54 0.60 0.65 0.75 0.84 0.93 1.06 1.19 1.29 1.47 1.60 1.66 1.71 1.71 1.76 1.85 1.82 1.64 1.55 1.51 1.50 1.60
1.10 1.59 1.43 1.02 0.94 0.87 0.90 0.77 0.88 1.27 1.52 1.16 0.96 0.69 0.40 0.32 0.37 0.42 0.46 0.51 0.49 0.48 0.49 0.51 0.58 0.69 0.80 0.88 0.96 1.06 1.14 1.30 1.50 1.54 1.61 1.63 1.67 1.78 1.82 1.66 1.48 1.42 1.37 1.37
1.42 1.60 1.32 1.15 0.97 0.94 0.91 0.69 0.77 1.47 1.85 1.08 0.68 0.55 0.43 0.39 0.42 0.45 0.49 0.53 0.52 0.49 0.49 0.51 0.58 0.65 0.72 0.81 0.88 0.93 1.00 1.11 1.26 1.38 1.49 1.56 1.57 1.64 1.77 1.73 1.49 1.41 1.37 1.32
1.23 1.45 0.90 0.64 0.53 0.66 0.72 0.65 0.74 1.12 1.12 1.03 0.63 0.52 0.58 0.57 0.59 0.57 0.54 0.51 0.48 0.46 0.47 0.50 0.58 0.66 0.65 0.68 0.76 0.82 0.84 0.93 1.05 1.14 1.28 1.46 1.53 1.57 1.69 1.75 1.68 1.56 1.50 1.40
0.92 1.22 0.91 0.67 0.46 0.54 0.61 0.59 0.65 0.74 0.72 0.73 0.60 0.63 0.56 0.54 0.50 0.51 0.53 0.50 0.52 0.49 0.48 0.47 0.54 0.62 0.63 0.66 0.72 0.78 0.80 0.84 0.93 1.03 1.12 1.25 1.33 1.44 1.59 1.68 1.64 1.61 1.61 1.56
0.74 1.00 1.22 0.90 0.52 0.70 0.90 0.78 0.74 0.72 0.63 0.63 0.72 0.66 0.50 0.48 0.50 0.56 0.54 0.50 0.52 0.50 0.46 0.45 0.49 0.58 0.63 0.64 0.65 0.71 0.79 0.82 0.89 0.99 1.06 1.14 1.19 1.23 1.36 1.51 1.63 1.67 1.67 1.65
0.61 0.87 1.35 1.05 0.79 1.08 0.89 0.62 0.60 0.63 0.63 0.59 0.60 0.51 0.49 0.53 0.55 0.57 0.56 0.52 0.46 0.44 0.41 0.39 0.44 0.49 0.59 0.62 0.59 0.60 0.63 0.71 0.80 0.88 0.91 0.98 1.11 1.19 1.25 1.42 1.60 1.74 1.81 1.82
0.38 0.85 1.41 1.22 0.91 0.64 0.42 0.36 0.49 0.61 0.64 0.55 0.49 0.41 0.39 0.41 0.43 0.50 0.52 0.50 0.47 0.45 0.43 0.40 0.42 0.45 0.49 0.56 0.59 0.57 0.59 0.67 0.73 0.83 0.86 0.89 1.02 1.21 1.35 1.50 1.65 1.76 1.88 1.94
0.38 0.74 1.41 1.28 1.10 0.67 0.41 0.22 0.27 0.48 0.71 0.44 0.40 0.42 0.40 0.39 0.51 0.52 0.47 0.46 0.42 0.39 0.39 0.40 0.40 0.39 0.43 0.49 0.54 0.58 0.62 0.69 0.79 0.90 0.99 1.03 1.12 1.31 1.45 1.57 1.65 1.66 1.71 1.75
0.60 0.93 1.21 1.06 1.05 0.61 0.36 0.20 0.21 0.65 0.82 0.40 0.36 0.41 0.45 0.55 0.65 0.54 0.44 0.43 0.40 0.38 0.39 0.40 0.44 0.48 0.52 0.56 0.62 0.70 0.73 0.86 0.98 1.02 1.11 1.19 1.22 1.26 1.31 1.36 1.37 1.30 1.26 1.27
0.53 0.72 0.76 0.81 1.07 0.77 0.37 0.29 0.57 0.77 0.49 0.40 0.36 0.38 0.43 0.48 0.46 0.44 0.41 0.39 0.39 0.37 0.37 0.41 0.49 0.60 0.65 0.71 0.83 0.89 0.91 0.96 1.02 1.08 1.11 1.15 1.17 1.19 1.18 1.16 1.11 1.02 0.96 0.97
0.51 0.68 0.76 0.79 0.86 0.71 0.52 0.56 0.60 0.51 0.48 0.42 0.43 0.41 0.42 0.44 0.44 0.43 0.42 0.39 0.36 0.36 0.37 0.42 0.48 0.52 0.58 0.65 0.76 0.85 0.84 0.83 0.89 0.96 1.00 1.03 1.00 1.01 1.03 1.00 0.98 0.96 0.90 0.89
0.48 0.41 0.54 0.62 0.58 0.49 0.44 0.38 0.37 0.39 0.45 0.44 0.43 0.42 0.40 0.43 0.41 0.39 0.37 0.37 0.37 0.38 0.39 0.40 0.42 0.43 0.46 0.48 0.57 0.65 0.64 0.66 0.70 0.78 0.83 0.87 0.89 0.90 0.91 0.90 0.89 0.92 0.93 0.89
0.48 0.46 0.55 0.58 0.46 0.38 0.35 0.33 0.35 0.33 0.31 0.31 0.32 0.35 0.38 0.39 0.39 0.38 0.38 0.37 0.38 0.40 0.41 0.42 0.45 0.48 0.50 0.50 0.51 0.55 0.58 0.62 0.67 0.69 0.72 0.74 0.78 0.83 0.87 0.88 0.91 0.94 0.95 1.00
0.46 0.56 0.69 0.66 0.45 0.50 0.44 0.34 0.31 0.30 0.29 0.27 0.27 0.28 0.30 0.33 0.37 0.38 0.40 0.40 0.40 0.41 0.39 0.39 0.41 0.46 0.50 0.52 0.53 0.54 0.56 0.61 0.68 0.71 0.71 0.72 0.76 0.80 0.82 0.84 0.90 0.97 0.97 1.03